Regional Weather Roundup
Issued by NWS

Home | Current Version | Previous Version | Graphics & Text | Print | Product List | Glossary On
Versions: 1 2 3 4 5 6 7 8 9 10 11 12 13 14 15 16 17 18 19 20 21 22 23 24 25 26 27 28 29 30 31 32 33 34 35 36 37 38 39 40 41 42 43 44 45 46 47 48 49 50
000
ASUS45 KPSR 172200
RWRAZ

ARIZONA REGIONAL HOURLY WEATHER ROUNDUP
NATIONAL WEATHER SERVICE PHOENIX AZ
300 PM MST FRI APR 17 2015

NOTE: FAIR INDICATES FEW OR NO CLOUDS BELOW 12,000 FEET WITH NO
SIGNIFICANT WEATHER AND/OR OBSTRUCTIONS TO VISIBILITY.

AZZ001>003-036-172300-
NORTHWEST ARIZONA

CITY           SKY/WX    TMP DP  RH WIND       PRES   REMARKS
KINGMAN        SUNNY     71  21  15 N20G25    30.03F
$$

AZZ004>008-015-016-018-172300-
NORTH CENTRAL ARIZONA

CITY           SKY/WX    TMP DP  RH WIND       PRES   REMARKS
GRAND CANYON   PTSUNNY   48  28  46 W10G17    30.08F
WILLIAMS       PTSUNNY   50  27  40 NW13      30.15F
PRESCOTT       PTSUNNY   61  19  19 NW10      30.04F
FLAGSTAFF      NOT AVBL
PAYSON         MOSUNNY   63  10  13 W14G23    30.05F
PAGE           CLOUDY    58  28  32 E6        30.00F
$$

AZZ009>014-017-172300-
NORTHEAST ARIZONA

CITY           SKY/WX    TMP DP  RH WIND       PRES   REMARKS
WINSLOW        NOT AVBL
SAINT JOHNS    MOSUNNY   56  15  20 W20G26    30.02F
WINDOW ROCK    CLOUDY    47  18  31 NW13G22   30.03F
SHOW LOW       PTSUNNY   46  14  27 N7        30.07F
$$

AZZ023-172300-
GREATER PHOENIX AREA

CITY           SKY/WX    TMP DP  RH WIND       PRES   REMARKS
PHOENIX        MOSUNNY   79  21  11 W14G20    29.94F
GLENDALE       MOSUNNY   79  25  13 MISG      29.95F
DEER VALLEY    SUNNY     77  18  11 W8G20     29.94F
SCOTTSDALE     SUNNY     77  20  12 VRB5      29.96F
MESA-FALCON    MOSUNNY   77  19  11 W12       29.96F
MESA-GATEWAY   SUNNY     75  19  12 W9        29.98F
CHANDLER       MOSUNNY   77  19  11 W14       29.95F
$$

AZZ027-028-172300-
SOUTHWEST MARICOPA COUNTY AND PINAL COUNTY

CITY           SKY/WX    TMP DP  RH WIND       PRES   REMARKS
CASA GRANDE    SUNNY     77  21  12 SW10G20   29.95F
$$

AZZ503-504-507>509-172300-
SOUTHEAST ARIZONA

CITY           SKY/WX    TMP DP  RH WIND       PRES   REMARKS
TUCSON         SUNNY     75  13   9 N10       30.01F
NOGALES        SUNNY     71  13  10 VRB5      30.02F
SAFFORD        SUNNY     73  11   9 NW16G22   29.95F
$$

AZZ020-021-025-026-031-172300-
SOUTHWEST ARIZONA

CITY           SKY/WX    TMP DP  RH WIND       PRES   REMARKS
YUMA           NOT AVBL
$$

CAZ031-033-041-043-047-048-061-172300-
SOUTHERN CALIFORNIA

CITY           SKY/WX    TMP DP  RH WIND       PRES   REMARKS
DOWNTOWN L.A.  SUNNY     75  36  24 W10G18    29.98F
L.A. AIRPORT   SUNNY     70  47  43 W21G26    30.00F
SAN DIEGO      SUNNY     72  45  37 NW16G22   30.00F
BURBANK        SUNNY     83  30  14 SE13      29.97F
ONTARIO        SUNNY     85  17   8 W16G24    29.97F
RIVERSIDE      SUNNY     84  15   7 W13G23    29.95F
PALM SPRINGS   SUNNY     89   9   5 CALM      29.92F
EL CENTRO NAS  SUNNY     85  17   8 SE6       29.93F
IMPERIAL       SUNNY     85  20   9 W8        29.93F
BLYTHE         SUNNY     83  19   9 SW8       29.94F
$$

NVZ020-UTZ003-172300-
SOUTHERN NEVADA-UTAH

CITY           SKY/WX    TMP DP  RH WIND       PRES   REMARKS
LAS VEGAS      NOT AVBL
SALT LAKE CITY PTSUNNY   59  36  42 W12       30.03F
$$

NMZ009-TXZ055-172300-
NEW MEXICO-WEST TEXAS

CITY           SKY/WX    TMP DP  RH WIND       PRES   REMARKS
ALBUQUERQUE    CLOUDY    52  17  25 SW12G30   30.01F
EL PASO        MOSUNNY   70   2   7 W22G30    29.96F
$$


........................KEY........................
SKY/WX - SKY CONDITION/WEATHER
TMP    - TEMPERATURE IN FAHRENHEIT
DP     - DEW POINT IN FAHRENHEIT
RH     - RELATIVE HUMIDITY IN PERCENT
WIND   - DIRECTION AND SPEED IN MILES PER HOUR (MPH)
VRB    - VARIABLE WIND DIRECTION
PRES   - MEAN SEA LEVEL PRESSURE IN INCHES OF MERCURY
         F - FALLING PRESSURE   R - RISING PRESSURE
         S - STEADY PRESSURE
VSB    - VISIBILITY IN MILES
HX     - HEAT INDEX IN FAHRENHEIT
WCI    - WIND CHILL INDEX IN FAHRENHEIT
TC     - TEMPERATURE IN CELSIUS WHICH IS ALSO KNOWN AS
         TEMPERATURE IN CENTIGRADE
AFB    - AIR FORCE BASE
         LUKE AFB IS LUKE AIR FORCE BASE
         DAVIS-MONTHAN IS DAVIS-MONTHAN AIR FORCE BASE
NAS    - NAVAL AIR STATION
         EL CENTRO NAS IS EL CENTRO NAVAL AIR STATION
N/A    - NOT AVAILABLE



USA.gov is the U.S. government's official web portal to all federal, state and local government web resources and services.